Weather History for KNFL - April, 2014

Change the Weather History Date:

Thursday, April 24, 2014

  Actual Average Record
Temperature  
Mean Temperature 55 °F -  
Max Temperature 69 °F 64 °F 85 °F (1949)
Min Temperature 41 °F 36 °F 18 °F (1964)
Degree Days  
Heating Degree Days 10    
Growing Degree Days 5 (Base 50)    
Moisture  
Dew Point 24 °F    
Average Humidity 29    
Maximum Humidity 43    
Minimum Humidity 20    
Precipitation  
Precipitation 0.00 in - - ()
Sea Level Pressure  
Sea Level Pressure 29.88 in    
Wind  
Wind Speed 7 mph (SW)    
Max Wind Speed 17 mph    
Max Gust Speed 28 mph    
Visibility 10 miles    
Events      
Averages and records for this station are not official NWS values.
T = Trace of Precipitation, MM = Missing Value Source: NWS Daily Summary

Daily Weather History Graph

Daily Weather History Graph

Search for Another Location

Airport or City:

Trip Planner

Search our weather history database for the weather conditions in past years. The results will help you decide how hot, cold, wet, or windy it might be!

Date:

Astronomy

Apr. 24, 2014 Rise Set
Actual Time 6:04 AM PDT 7:41 PM PDT
Civil Twilight 5:36 AM PDT 8:10 PM PDT
Nautical Twilight 5:02 AM PDT 8:44 PM PDT
Astronomical Twilight 4:25 AM PDT 9:21 PM PDT
Moon 3:17 AM PDT (4/24) 3:03 PM PDT (4/24)
Length of Visible Light 14h 33m
Length of Day
13h 36m
Waning Crescent, 23% of the Moon is Illuminated
Apr 24
Waning Crescent
Apr 28
New
May 6
First Quarter
May 14
Full
May 21
Last Quarter

Hourly Weather History & Observations

Time (PDT) Temp. Windchill Dew Point Humidity Pressure Visibility Wind Dir Wind Speed Gust Speed Precip Events Conditions
12:56 AM 46.0 °F 44.8 °F 24.1 °F 42% 29.93 in 10.0 mi South 3.5 mph - N/A   Clear
1:56 AM 45.0 °F - 23.0 °F 42% 29.93 in 10.0 mi Calm Calm - N/A   Clear
2:56 AM 46.0 °F 43.9 °F 23.0 °F 40% 29.93 in 10.0 mi South 4.6 mph - N/A   Scattered Clouds
3:56 AM 46.0 °F 41.9 °F 23.0 °F 40% 29.92 in 10.0 mi SSE 8.1 mph - N/A   Mostly Cloudy
4:56 AM 42.1 °F 38.4 °F 19.9 °F 41% 29.93 in 10.0 mi SE 5.8 mph - N/A   Mostly Cloudy
5:56 AM 42.1 °F 36.6 °F 19.9 °F 41% 29.94 in 10.0 mi SSE 9.2 mph - N/A   Partly Cloudy
6:16 AM 41.0 °F 35.2 °F 19.9 °F 43% 30.02 in 10.0 mi SSE 9.2 mph - N/A   Scattered Clouds
6:56 AM 45.0 °F 42.6 °F 21.9 °F 40% 29.95 in 10.0 mi SSE 4.6 mph - N/A   Scattered Clouds
7:56 AM 52.0 °F - 25.0 °F 35% 29.95 in 10.0 mi SSE 5.8 mph - N/A   Mostly Cloudy
8:56 AM 57.9 °F - 25.0 °F 28% 29.95 in 10.0 mi SSE 5.8 mph - N/A   Mostly Cloudy
9:56 AM 60.1 °F - 26.1 °F 27% 29.94 in 10.0 mi SSE 4.6 mph - N/A   Mostly Cloudy
10:56 AM 64.0 °F - 24.1 °F 22% 29.93 in 10.0 mi South 8.1 mph - N/A   Mostly Cloudy
11:56 AM 64.9 °F - 24.1 °F 21% 29.92 in 10.0 mi Calm Calm - N/A   Overcast
12:56 PM 68.0 °F - 26.1 °F 21% 29.89 in 10.0 mi WSW 11.5 mph 20.7 mph N/A   Overcast
1:56 PM 68.0 °F - 26.1 °F 21% 29.87 in 10.0 mi West 11.5 mph 16.1 mph N/A   Overcast
2:56 PM 69.1 °F - 26.1 °F 20% 29.86 in 10.0 mi West 17.3 mph 27.6 mph N/A   Overcast
3:56 PM 69.1 °F - 26.1 °F 20% 29.83 in 10.0 mi WNW 17.3 mph 25.3 mph N/A   Overcast
4:56 PM 66.9 °F - 26.1 °F 21% 29.82 in 10.0 mi West 17.3 mph - N/A   Overcast
5:56 PM 66.0 °F - 24.1 °F 20% 29.80 in 10.0 mi West 17.3 mph - N/A   Overcast
6:56 PM 64.0 °F - 23.0 °F 21% 29.80 in 10.0 mi West 12.7 mph - N/A   Overcast
7:56 PM 62.1 °F - 21.0 °F 21% 29.80 in 10.0 mi West 17.3 mph 25.3 mph N/A   Overcast
8:56 PM 60.1 °F - 21.0 °F 22% 29.80 in 10.0 mi West 12.7 mph - N/A   Overcast
9:56 PM 59.0 °F - 24.1 °F 26% 29.81 in 10.0 mi Variable 5.8 mph - N/A   Overcast
10:56 PM 57.0 °F - 23.0 °F 27% 29.80 in 10.0 mi West 8.1 mph - N/A   Overcast
11:56 PM 57.0 °F - 23.0 °F 27% 29.78 in 10.0 mi Calm Calm - N/A   Overcast